Hourly Data Report for January 12, 2018

All times are specified in Local Standard Time (LST). Add 1 hour to adjust for Daylight Saving Time where and when it is observed.

VICTORIA INTL A
BRITISH COLUMBIA

48°38'50.000" N
123°25'33.000" W
19.50 m
1018621
71799
YYJ

Download Data

Hourly Data (January 2018)
Hourly Data Report for January 12, 2018
Temp Definition
°C
Dew Point Temp Definition
°C
Rel Hum Definition
%
Wind Dir Definition
10's deg

Wind Spd Definition
km/h
Visibility Definition
km
Stn Press Definition
kPa
Hmdx Definition


Wind Chill Definition


Weather Definition


TIME
00:00 3.1 2.9 98 29 11 2.0 101.49     Rain,Drizzle,Fog
01:00 3.2 3.0 99 29 10 2.0 101.56     Rain,Drizzle,Fog
02:00 3.3 3.1 99 7 13 1.6 101.63     Rain,Drizzle,Fog
03:00 3.4 3.1 98 7 7 2.0 101.73     Rain,Drizzle,Fog
04:00 3.3 3.0 98 35 11 2.0 101.82     Drizzle,Fog
05:00 3.3 3.1 98 33 13 2.0 101.86     Drizzle,Fog
06:00 3.4 3.1 98 36 7 2.0 101.90     Drizzle,Fog
07:00 3.5 3.2 98 33 5 2.0 101.96     Drizzle,Fog
08:00 3.6 3.4 98 31 9 6.4 101.96     Drizzle,Fog
09:00 3.9 3.7 99 31 9 4.8 102.08     Drizzle,Fog
10:00 4.3 4.0 98 29 12 12.9 102.15     Drizzle
11:00 4.5 4.3 98 28 8 16.1 102.21     Drizzle
12:00 5.0 4.5 97 27 5 24.1 102.27     LegendNANA
13:00 5.2 4.4 94 20 4 32.2 102.29     Mostly Cloudy
14:00 5.5 4.5 93 11 8 24.1 102.31     LegendNANA
15:00 5.7 4.9 94 11 6 24.1 102.37     LegendNANA
16:00 6.1 5.4 95 6 4 32.2 102.43     Cloudy
17:00 5.6 5.3 98 16 4 32.2 102.46     LegendNANA
18:00 5.8 5.5 98 36 2 12.9 102.52     Rain
19:00 6.5 6.2 98 15 11 12.9 102.51     Rain
20:00 7.0 6.6 98 14 13 9.7 102.49     Rain,Fog
21:00 7.0 6.6 97 15 14 16.1 102.47     Rain
22:00 7.1 6.7 98 14 4 19.3 102.44     Rain
23:00 6.8 6.6 99 29 8 16.1 102.49     Rain

Notes on Data Quality.

Legend

  • E = Estimated
  • M = Missing
  • NA = Not Available
Date modified: